Location: ???? ???? ?????
(31.2680°N, 31.7283°E)
Time: 04:37:01
(UTC+00:00)

Gbstr 26 Del rocket - Pass Details

Date: 13 July 2020
Orbit: 492 x 1264 km, 51.8° (Epoch: 11 August)

Event Time Altitude Azimuth Distance (km) Brightness Sun altitude
Rises 18:31:32 0° 239° (WSW) 2,751 6.6 -17.4°
Reaches altitude 10° 18:33:57 10° 247° (WSW) 1,782 5.7 -17.8°
Maximum altitude 18:37:41 40° 318° (NW) 747 4.0 -18.4°
Drops below altitude 10° 18:41:13 10° 30° (NNE) 1,683 5.4 -19.0°
Sets 18:43:27 0° 38° (NE) 2,576 6.3 -19.3°
